Location: ????
(32.1228°N, 34.8377°E)
Time: 15:59:52
(UTC+00:00)

SL-4 R/B - Pass Details

Date: 21 September 2020
Orbit: 428 x 666 km, 51.6° (Epoch: 24 October)

Event Time Altitude Azimuth Distance (km) Brightness Sun altitude
Exits shadow 02:45:22 11° 288° (WNW) 1,952 4.3 -9.9°
Maximum altitude 02:48:27 19° 331° (NNW) 1,541 4.1 -9.3°
Drops below altitude 10° 02:51:47 10° 16° (NNE) 2,060 5.2 -8.6°
Sets 02:54:49 0° 34° (NE) 2,993 6.4 -7.9°
